[Date Prev][Date Next][Thread Prev][Thread Next] - [Date Index][Thread Index][Author Index]

2 Line ISS Keps 11-26



ISS
1 25544U 98067A   02330.21274567  .00370779  00000-0  42950-2 0  4172
2 25544  51.6356 319.4273 0013094 180.2625 287.9257 15.59959399229241


----
Via the sarex mailing list at AMSAT.ORG courtesy of AMSAT-NA.
To unsubscribe, send "unsubscribe sarex" to Majordomo@amsat.org



AMSAT Top AMSAT Home